Tracking 27420 objects as of 11-Jun-2023
HD Live streaming from Space Station
objects crossing your sky now

OPS 1264 (DMSP 4A F4)

Track OPS 1264 (DMSP 4A F4) now!
10-day predictions
OPS 1264 (DMSP 4A F4) is classified as:


NORAD ID: 2980
Int'l Code: 1967-096A
Perigee: 631.2 km
Apogee: 768.1 km
Inclination: 99.2 °
Period: 98.6 minutes
Semi major axis: 7070 km
RCS: 0.6338 m2 (medium)
Launch date: October 11, 1967
Source: United States (US)
Launch site: AIR FORCE WESTERN TEST RANGE (AFWTR)
Your satellite tracking list
Your tracking list is empty




NASA's NSSDC Master Catalog

Two Line Element Set (TLE):
1  2980U 67096A   23161.58324807  .00000494  00000-0  10833-3 0  9992
2  2980  99.1798  96.1624 0096775 219.1219 140.2954 14.60208071946992
Source of the keplerian elements: AFSPC